When you browse on this site, cookies collect data to enhance your experience and personalize the content and advertising you see.
Visit our Privacy Policy to learn more. By continuing to use the site, you agree to this use of cookies and data.

Hourly Weather Bolshoe Ragozino

Today, 10 July, Friday

Time Temperature Precipitation Wind Pressure Humidity
00:00 +10°C° 0 mm 2 mps 746 mmHg 95%
01:00 +9°C° 0 mm 2 mps 746 mmHg 95%
02:00 +9°C° 0 mm 2 mps 746 mmHg 95%
03:00 +9°C° 0 mm 2 mps 747 mmHg 93%
04:00 +10°C° 0 mm 2 mps 747 mmHg 92%
05:00 +10°C° 0 mm 2 mps 747 mmHg 90%
06:00 +13°C° 0 mm 2 mps 748 mmHg 84%
07:00 +15°C° 0 mm 2 mps 748 mmHg 77%
08:00 +17°C° 0 mm 2 mps 748 mmHg 70%
09:00 +18°C° 0 mm 2 mps 748 mmHg 65%
10:00 +19°C° 0 mm 3 mps 748 mmHg 60%
11:00 +20°C° 0 mm 3 mps 748 mmHg 55%
12:00 +20°C° 0 mm 3 mps 748 mmHg 55%
13:00 +20°C° 0 mm 4 mps 748 mmHg 55%
14:00 +21°C° 0 mm 4 mps 748 mmHg 55%
15:00 +21°C° 0 mm 4 mps 748 mmHg 59%
16:00 +20°C° 0 mm 3 mps 748 mmHg 63%
17:00 +20°C° 0 mm 3 mps 748 mmHg 66%
18:00 +19°C° 0 mm 3 mps 748 mmHg 71%
19:00 +17°C° 0 mm 3 mps 748 mmHg 76%
20:00 +16°C° 0 mm 2 mps 748 mmHg 81%
21:00 +16°C° 0 mm 2 mps 748 mmHg 79%
22:00 +15°C° 0 mm 2 mps 748 mmHg 77%
23:00 +15°C° 0 mm 2 mps 747 mmHg 75%

Tomorrow, 11 July, Saturday

Time Temperature Precipitation Wind Pressure Humidity
00:00 +16°C° 0 mm 3 mps 747 mmHg 73%
01:00 +15°C° 0 mm 4 mps 747 mmHg 71%
02:00 +15°C° 0 mm 4 mps 747 mmHg 69%
03:00 +15°C° 0.6 mm 4 mps 747 mmHg 77%
04:00 +15°C° 0.6 mm 5 mps 746 mmHg 85%
05:00 +14°C° 0.6 mm 5 mps 746 mmHg 92%
06:00 +15°C° 0 mm 5 mps 746 mmHg 91%
07:00 +16°C° 0 mm 5 mps 746 mmHg 91%
08:00 +17°C° 0 mm 5 mps 746 mmHg 90%
09:00 +19°C° 0 mm 5 mps 746 mmHg 88%
10:00 +19°C° 0 mm 5 mps 746 mmHg 86%
11:00 +20°C° 0 mm 5 mps 745 mmHg 84%
12:00 +22°C° 0.1 mm 5 mps 745 mmHg 80%
13:00 +24°C° 0.1 mm 6 mps 745 mmHg 76%
14:00 +26°C° 0.1 mm 7 mps 744 mmHg 72%
15:00 +26°C° 0.7 mm 6 mps 744 mmHg 78%
16:00 +24°C° 0.7 mm 6 mps 744 mmHg 84%
17:00 +23°C° 0.7 mm 6 mps 744 mmHg 90%
18:00 +22°C° 0.2 mm 5 mps 744 mmHg 91%
19:00 +22°C° 0.2 mm 5 mps 744 mmHg 91%
20:00 +21°C° 0.2 mm 4 mps 745 mmHg 92%
21:00 +20°C° 0 mm 4 mps 745 mmHg 90%
22:00 +18°C° 0 mm 3 mps 745 mmHg 89%
23:00 +17°C° 0 mm 3 mps 746 mmHg 87%

Day after tomorrow, 12 July, Sunday

Time Temperature Precipitation Wind Pressure Humidity
00:00 +14°C° 0 mm 3 mps 746 mmHg 87%
01:00 +14°C° 0 mm 2 mps 746 mmHg 87%
02:00 +13°C° 0 mm 2 mps 747 mmHg 87%
03:00 +13°C° 0 mm 2 mps 747 mmHg 86%
04:00 +14°C° 0 mm 2 mps 747 mmHg 85%
05:00 +14°C° 0 mm 2 mps 747 mmHg 85%
06:00 +15°C° 0 mm 2 mps 747 mmHg 81%
07:00 +16°C° 0 mm 2 mps 748 mmHg 78%
08:00 +16°C° 0 mm 2 mps 748 mmHg 75%
09:00 +17°C° 0 mm 2 mps 748 mmHg 73%
10:00 +18°C° 0 mm 2 mps 748 mmHg 71%
11:00 +18°C° 0 mm 2 mps 748 mmHg 68%
12:00 +18°C° 0 mm 2 mps 748 mmHg 70%
13:00 +18°C° 0 mm 2 mps 748 mmHg 72%
14:00 +18°C° 0 mm 2 mps 748 mmHg 74%
15:00 +17°C° 0 mm 2 mps 748 mmHg 75%
16:00 +17°C° 0 mm 2 mps 748 mmHg 77%
17:00 +17°C° 0 mm 2 mps 747 mmHg 78%
18:00 +16°C° 0 mm 2 mps 747 mmHg 78%
19:00 +16°C° 0 mm 2 mps 747 mmHg 79%
20:00 +15°C° 0 mm 2 mps 747 mmHg 79%
21:00 +15°C° 0 mm 2 mps 747 mmHg 80%
22:00 +15°C° 0 mm 2 mps 747 mmHg 81%
23:00 +14°C° 0 mm 2 mps 747 mmHg 82%

13 July, Monday

Time Temperature Precipitation Wind Pressure Humidity
00:00 +14°C° 0 mm 2 mps 747 mmHg 82%
01:00 +14°C° 0 mm 2 mps 746 mmHg 83%
02:00 +14°C° 0 mm 2 mps 746 mmHg 84%
03:00 +13°C° 0.4 mm 3 mps 746 mmHg 87%
04:00 +13°C° 0.4 mm 3 mps 745 mmHg 91%
05:00 +13°C° 0.4 mm 3 mps 745 mmHg 94%
06:00 +14°C° 0.1 mm 4 mps 745 mmHg 94%
07:00 +14°C° 0.1 mm 4 mps 744 mmHg 94%
08:00 +15°C° 0.1 mm 4 mps 744 mmHg 94%
09:00 +17°C° 0.3 mm 4 mps 744 mmHg 92%
10:00 +18°C° 0.3 mm 3 mps 744 mmHg 89%
11:00 +20°C° 0.3 mm 3 mps 743 mmHg 87%
12:00 +20°C° 0.2 mm 3 mps 743 mmHg 87%
13:00 +20°C° 0.2 mm 3 mps 742 mmHg 87%
14:00 +20°C° 0.2 mm 3 mps 742 mmHg 87%
15:00 +20°C° 0.1 mm 3 mps 741 mmHg 87%
16:00 +20°C° 0.1 mm 4 mps 741 mmHg 86%
17:00 +21°C° 0.1 mm 4 mps 741 mmHg 85%
18:00 +20°C° 0 mm 3 mps 740 mmHg 88%
19:00 +19°C° 0 mm 3 mps 740 mmHg 92%
20:00 +18°C° 0 mm 3 mps 740 mmHg 95%
21:00 +17°C° 0.1 mm 3 mps 740 mmHg 96%
22:00 +17°C° 0.1 mm 3 mps 739 mmHg 97%
23:00 +16°C° 0.1 mm 3 mps 739 mmHg 97%

14 July, Tuesday

Time Temperature Precipitation Wind Pressure Humidity
00:00 +16°C° 0.6 mm 3 mps 738 mmHg 98%
01:00 +17°C° 0.6 mm 3 mps 738 mmHg 98%
02:00 +17°C° 0.6 mm 3 mps 737 mmHg 98%
03:00 +17°C° 0.3 mm 4 mps 737 mmHg 98%
04:00 +17°C° 0.3 mm 4 mps 736 mmHg 98%
05:00 +17°C° 0.3 mm 4 mps 736 mmHg 98%
06:00 +17°C° 1.4 mm 4 mps 735 mmHg 98%
07:00 +17°C° 1.4 mm 4 mps 735 mmHg 98%
08:00 +17°C° 1.4 mm 3 mps 735 mmHg 98%
09:00 +18°C° 0.3 mm 3 mps 735 mmHg 98%
10:00 +18°C° 0.3 mm 3 mps 735 mmHg 97%
11:00 +19°C° 0.3 mm 2 mps 734 mmHg 97%
12:00 +19°C° 0.2 mm 2 mps 734 mmHg 95%
13:00 +20°C° 0.2 mm 2 mps 734 mmHg 93%
14:00 +21°C° 0.2 mm 2 mps 734 mmHg 92%
15:00 +21°C° 0.7 mm 2 mps 734 mmHg 92%
16:00 +21°C° 0.7 mm 2 mps 734 mmHg 93%
17:00 +21°C° 0.7 mm 2 mps 734 mmHg 93%
18:00 +20°C° 0.2 mm 3 mps 734 mmHg 94%
19:00 +19°C° 0.2 mm 3 mps 733 mmHg 95%
20:00 +18°C° 0.2 mm 3 mps 733 mmHg 96%
21:00 +18°C° 0.3 mm 3 mps 733 mmHg 97%
22:00 +18°C° 0.3 mm 3 mps 733 mmHg 97%
23:00 +17°C° 0.3 mm 3 mps 733 mmHg 98%

15 July, Wednesday

Time Temperature Precipitation Wind Pressure Humidity
00:00 +17°C° 0.4 mm 3 mps 733 mmHg 98%
01:00 +17°C° 0.4 mm 2 mps 732 mmHg 98%
02:00 +17°C° 0.4 mm 2 mps 732 mmHg 98%
03:00 +17°C° 1.7 mm 2 mps 732 mmHg 98%
04:00 +17°C° 1.7 mm 2 mps 732 mmHg 98%
05:00 +17°C° 1.7 mm 2 mps 732 mmHg 98%
06:00 +17°C° 0.7 mm 2 mps 732 mmHg 98%
07:00 +17°C° 0.7 mm 2 mps 732 mmHg 98%
08:00 +17°C° 0.7 mm 2 mps 732 mmHg 98%
09:00 +17°C° 0.8 mm 2 mps 732 mmHg 97%
10:00 +17°C° 0.8 mm 2 mps 732 mmHg 97%
11:00 +17°C° 0.8 mm 2 mps 732 mmHg 97%
12:00 +17°C° 1.5 mm 3 mps 732 mmHg 97%
13:00 +17°C° 1.5 mm 3 mps 733 mmHg 97%
14:00 +17°C° 1.5 mm 4 mps 733 mmHg 96%
15:00 +15°C° 0.4 mm 4 mps 733 mmHg 96%
16:00 +14°C° 0.4 mm 5 mps 733 mmHg 96%
17:00 +14°C° 0.4 mm 5 mps 733 mmHg 95%
18:00 +13°C° 0.2 mm 5 mps 734 mmHg 95%
19:00 +13°C° 0.2 mm 5 mps 734 mmHg 95%
20:00 +12°C° 0.2 mm 5 mps 734 mmHg 95%
21:00 +12°C° 0.1 mm 5 mps 735 mmHg 95%
22:00 +12°C° 0.1 mm 5 mps 735 mmHg 95%
23:00 +12°C° 0.1 mm 5 mps 735 mmHg 95%
Show more